Wind_Speed
4 5 6 7 8 10 11 12 13 13 13 13 13 14 15 15 16 16 16 17 18 20 22 23 24 25 25 26 26 26 26 26 26 26 26 27 27 27 28 29 30 31 32 33
4 5 6 7 8 9 10 11 12 12 13 12 13 14 15 15 16 17 17 18 19 19 21 22 23 24 25 26 26 27 26 26 26 26 26 26 26 26 27 28 29 30 31 32
4 5 6 7 8 9 10 11 12 13 13 13 13 13 14 15 15 16 16 17 18 18 19 20 21 23 24 25 25 25 25 26 25 25 25 26 26 26 27 28 28 28 29 30
4 5 6 7 9 9 10 11 12 12 13 14 14 14 14 14 14 14 15 17 17 18 19 19 20 21 22 23 23 23 24 24 24 24 24 25 25 25 26 26 26 26 27 28
4 6 6 8 8 9 10 11 11 12 12 12 13 13 12 12 12 13 14 15 16 17 17 18 19 19 20 20 20 21 21 21 21 22 22 22 23 23 23 23 23 23 24 24
5 6 7 8 9 10 11 11 11 11 11 11 11 10 10 10 11 11 12 13 14 15 15 16 16 17 18 18 18 18 18 19 19 19 20 20 20 21 20 20 21 21 21 21
5 7 8 10 11 12 12 12 12 11 11 10 9 9 9 9 10 11 12 12 12 13 13 13 14 15 16 16 16 16 16 16 17 17 18 18 19 19 19 18 18 18 18 18
6 8 9 11 12 13 13 13 12 11 10 9 9 9 9 9 9 10 11 12 13 13 13 13 13 14 14 15 15 16 16 16 17 17 17 17 17 17 16 16 16 16 15 15
7 9 10 12 13 14 14 13 12 11 10 9 9 9 9 8 9 9 10 11 11 12 12 12 13 14 14 14 14 15 15 16 16 16 16 15 15 14 14 13 13 13 13 12
7 9 11 13 14 14 14 14 13 12 11 10 10 10 9 9 9 9 10 10 11 11 11 12 12 13 13 13 13 14 14 14 14 14 14 13 13 12 12 11 11 10 10 10
8 10 12 13 14 14 14 14 13 12 11 11 10 10 10 9 9 9 9 9 10 10 11 11 11 11 11 12 12 12 12 13 12 12 12 11 10 10 10 9 9 8 8 8
8 10 12 13 14 15 15 15 14 13 12 11 11 11 10 10 9 8 8 9 9 9 9 10 10 10 11 11 11 11 12 12 11 11 11 10 9 9 8 7 7 6 7 7
8 10 12 14 15 16 16 16 15 14 13 12 12 11 11 10 9 8 8 8 8 8 8 9 9 9 9 9 9 10 10 10 10 9 9 8 7 6 6 6 5 5 6 6
7 10 12 14 15 16 16 17 16 15 15 14 13 13 12 11 10 9 9 9 8 8 8 7 7 7 8 7 7 7 7 7 7 6 6 6 6 5 5 5 4 5 5 5
7 10 12 14 15 16 17 17 17 17 16 15 14 14 13 12 11 11 10 9 9 8 8 7 7 7 6 6 6 6 5 5 5 5 5 5 4 4 4 4 4 5 5 5
6 9 11 14 15 16 17 18 18 18 17 16 16 15 14 14 13 12 12 11 10 9 8 7 7 6 6 6 5 5 4 4 3 3 3 3 3 3 3 4 4 4 5 5
6 9 11 13 15 16 17 18 18 18 18 17 16 16 15 15 15 14 13 12 11 10 9 9 7 6 5 4 4 3 3 2 2 1 1 1 2 2 2 3 3 4 4 5
5 8 10 13 15 16 17 18 19 19 18 18 17 16 16 16 16 16 15 14 13 12 12 11 10 9 8 6 5 4 3 2 2 1 0 0 0 1 1 2 3 3 4 5
4 7 9 12 14 16 17 18 18 19 19 18 18 18 18 18 17 17 16 16 15 15 14 14 13 12 11 10 8 7 6 5 4 3 3 2 2 2 2 2 3 3 4 5
4 6 8 11 13 15 16 17 18 18 19 19 18 18 19 19 18 18 18 17 16 16 16 15 14 14 12 11 11 10 9 8 7 6 5 4 3 3 2 2 3 3 4 4
4 5 7 9 12 14 16 17 17 18 18 18 18 19 19 20 19 19 19 19 18 17 17 16 16 15 14 13 12 12 11 10 9 8 7 6 5 5 4 4 4 4 4 5
4 4 6 8 10 12 14 16 16 17 17 18 18 18 19 20 20 20 20 20 20 19 19 18 17 16 15 14 13 13 12 11 11 10 10 9 8 7 7 6 6 6 6 6
4 4 5 7 9 11 13 14 15 16 17 17 17 17 18 18 19 20 20 20 20 19 19 19 19 18 18 16 15 14 14 14 13 12 12 11 10 10 10 9 9 9 9 9
5 3 3 6 8 10 12 13 14 15 15 16 16 16 17 17 18 19 19 19 19 19 19 19 19 19 19 18 17 17 16 15 14 14 13 13 13 13 12 12 12 11 11 11
7 4 2 4 6 8 10 11 12 14 14 14 15 15 16 16 17 17 18 19 19 19 19 19 19 19 18 18 18 18 18 17 17 16 15 15 15 15 14 14 14 13 13 13
8 6 3 1 3 6 8 9 11 12 13 13 13 14 14 15 15 16 16 17 17 18 18 18 18 18 18 18 18 17 17 17 17 17 17 17 16 16 15 15 15 14 14 14
10 7 5 2 1 4 6 8 9 10 11 11 12 12 13 13 14 14 14 15 15 16 16 17 17 17 17 17 17 17 16 16 16 16 16 16 16 16 15 15 15 14 14 14
Wind_Direction
300 298 290 278 273 271 272 276 278 278 278 279 280 278 279 280 278 278 268 263 260 257 259 258 257 257 258 261 263 266 268 269 271 273 274 275 276 277 278 279 281 283 285 287
305 301 293 289 287 281 281 283 285 284 280 281 282 282 282 281 278 275 265 261 260 260 259 260 260 259 259 261 263 265 268 269 271 272 273 274 275 276 279 280 282 284 286 288
311 309 305 293 297 293 292 296 295 290 287 287 285 282 281 280 275 270 267 265 263 262 261 260 259 259 260 260 262 264 266 268 269 270 272 273 274 277 279 281 284 286 288 290
327 317 311 311 309 304 302 304 305 299 295 294 291 285 284 281 272 269 267 265 265 266 265 261 258 259 259 260 262 264 266 268 269 270 272 274 275 277 280 283 285 287 290 292
339 329 325 323 322 318 315 312 313 309 306 303 296 290 285 279 268 265 266 266 266 265 266 264 260 260 260 262 264 266 268 270 270 272 273 275 277 279 282 285 287 290 293 296
350 344 340 339 336 333 330 327 324 319 315 313 308 300 290 282 276 269 267 268 267 265 266 266 266 264 263 264 265 267 269 270 270 272 273 276 278 280 283 285 288 292 296 299
354 355 357 355 351 345 342 341 337 332 328 323 318 310 301 290 280 274 269 269 268 268 269 269 271 270 268 267 267 268 269 271 272 274 275 276 278 281 284 286 289 293 297 300
1 4 4 1 359 355 352 349 348 344 340 331 323 313 304 296 285 282 280 278 276 275 277 275 274 274 273 273 273 272 271 272 273 275 277 278 280 281 283 285 290 295 299 302
18 13 9 6 3 1 358 357 356 354 350 342 333 324 316 307 299 293 289 287 286 283 281 279 277 276 276 277 276 275 274 274 275 276 277 278 279 280 282 286 291 296 299 302
23 17 12 8 6 4 3 2 2 360 356 351 345 342 333 320 308 301 296 295 293 290 286 284 284 282 280 279 280 279 278 278 278 278 278 277 277 278 281 286 291 293 297 299
26 20 15 13 10 9 8 6 4 2 1 357 353 349 341 330 319 311 306 302 298 295 291 288 287 286 284 283 283 282 280 279 280 279 277 275 274 275 280 284 288 291 297 301
28 21 19 17 15 14 13 11 9 8 6 3 358 353 348 342 335 326 318 311 306 302 299 295 291 289 287 286 285 283 282 281 279 277 274 272 271 272 275 280 284 289 297 304
31 26 23 21 20 20 18 17 17 16 13 10 6 2 358 353 346 339 333 327 320 313 308 302 296 293 292 290 287 287 285 283 280 276 271 269 268 266 269 274 279 288 298 304
36 30 28 25 25 24 23 22 22 21 19 17 14 10 8 5 2 357 350 344 336 329 323 316 309 304 299 297 294 291 290 287 281 274 267 263 263 261 261 264 275 287 298 307
43 35 32 29 28 27 26 25 25 24 24 22 20 17 16 15 13 8 1 354 348 342 337 330 322 316 310 307 305 302 299 295 285 275 270 264 257 251 252 259 274 288 300 311
49 39 35 33 30 29 28 27 27 27 26 26 26 25 25 23 18 14 10 6 5 2 356 348 338 327 317 314 313 311 309 302 289 277 273 261 248 248 253 264 280 294 306 317
56 44 40 36 34 33 32 30 29 29 30 30 30 30 29 26 22 21 19 19 19 17 13 8 2 356 350 345 341 335 328 322 300 269 265 262 254 260 265 279 294 304 314 323
64 50 44 40 37 36 35 33 32 32 32 33 33 33 30 28 26 27 29 32 32 31 29 28 29 31 34 36 37 37 38 43 55 70 67 38 327 295 293 305 315 318 323 329
75 56 48 43 40 38 37 36 34 34 35 36 36 35 34 33 33 35 37 39 39 38 37 39 42 45 49 51 56 57 59 62 63 63 60 50 34 13 351 335 334 336 338 342
90 63 53 46 42 40 39 38 37 36 37 38 38 38 38 38 39 40 42 42 42 41 42 44 46 48 50 52 55 57 59 61 61 61 57 51 44 35 21 7 358 353 354 357
110 74 59 49 44 41 40 39 38 37 38 39 40 41 41 41 42 44 45 45 44 44 45 47 49 51 53 54 55 56 60 61 59 57 54 51 47 42 35 33 32 27 23 22
130 88 64 52 45 42 40 39 38 37 38 39 41 41 42 43 43 45 46 45 45 46 48 49 50 52 53 53 54 56 57 57 56 56 55 54 53 51 50 50 47 44 43 42
152 107 72 55 46 42 40 39 38 37 38 40 40 41 42 43 44 45 47 46 46 47 48 49 50 52 54 54 55 56 58 58 59 58 57 56 55 55 55 55 54 54 54 55
172 140 86 59 48 42 39 38 36 36 37 38 39 40 41 42 44 45 46 46 46 47 48 49 50 51 53 54 55 57 57 58 58 59 59 59 59 59 59 58 58 59 59 59
186 173 124 63 47 40 36 35 34 34 34 35 36 38 39 41 42 43 44 45 46 47 48 49 50 51 53 55 56 57 58 58 59 60 61 62 62 63 62 61 61 60 59 58
194 191 180 89 41 33 30 29 29 30 31 32 33 34 36 37 38 39 40 42 43 45 47 48 49 51 52 54 55 56 57 58 59 61 62 62 63 63 63 62 60 58 57 56
202 202 205 213 350 14 18 18 20 21 23 25 27 29 31 33 34 35 36 37 38 41 43 45 47 48 50 51 54 55 56 57 58 58 59 60 61 61 60 59 58 57 56 54
Height
5732 5732 5731 5731 5731 5731 5731 5731 5731 5731 5730 5730 5729 5729 5729 5729 5729 5729 5729 5730 5730 5731 5732 5733 5734 5735 5736 5737 5738 5739 5740 5741 5741 5742 5742 5743 5743 5743 5743 5743 5743 5743 5742 5740
5731 5730 5730 5730 5729 5729 5729 5728 5727 5727 5727 5726 5725 5725 5724 5724 5724 5723 5723 5724 5724 5725 5725 5726 5727 5728 5729 5730 5731 5732 5732 5733 5734 5734 5735 5735 5736 5736 5736 5735 5735 5734 5733 5731
5731 5730 5729 5729 5728 5727 5726 5725 5724 5723 5723 5722 5721 5720 5720 5719 5718 5718 5718 5718 5718 5718 5719 5719 5720 5721 5722 5723 5724 5724 5725 5726 5727 5727 5727 5728 5728 5728 5728 5728 5727 5726 5724 5723
5730 5730 5729 5730 5726 5725 5724 5722 5721 5719 5718 5717 5716 5715 5715 5714 5714 5713 5713 5713 5713 5713 5713 5713 5714 5714 5715 5716 5717 5718 5718 5719 5719 5720 5720 5720 5721 5721 5720 5720 5719 5718 5716 5714
5730 5728 5728 5727 5725 5723 5721 5720 5718 5715 5714 5712 5711 5710 5710 5709 5709 5708 5708 5708 5708 5708 5708 5708 5708 5709 5709 5710 5711 5711 5712 5712 5713 5713 5713 5714 5714 5714 5713 5713 5712 5711 5709 5707
5729 5728 5727 5727 5724 5721 5720 5717 5714 5712 5710 5708 5707 5707 5706 5705 5704 5704 5704 5703 5703 5703 5703 5703 5703 5704 5704 5705 5705 5706 5706 5706 5707 5707 5707 5707 5707 5707 5707 5706 5705 5704 5702 5700
5729 5727 5726 5725 5722 5720 5718 5716 5711 5708 5706 5705 5704 5703 5703 5701 5700 5700 5699 5699 5699 5699 5698 5699 5699 5699 5699 5699 5700 5700 5700 5701 5701 5701 5701 5701 5701 5700 5700 5700 5699 5697 5696 5694
5728 5727 5727 5723 5720 5718 5716 5712 5709 5706 5704 5702 5701 5700 5698 5697 5696 5696 5695 5695 5695 5694 5694 5694 5694 5694 5694 5694 5694 5695 5695 5695 5695 5695 5695 5695 5695 5695 5694 5694 5693 5692 5691 5689
5729 5729 5725 5722 5720 5717 5714 5711 5707 5705 5702 5701 5699 5697 5696 5695 5693 5693 5692 5691 5691 5690 5690 5690 5690 5690 5690 5690 5690 5690 5690 5690 5690 5690 5690 5690 5690 5690 5689 5689 5689 5688 5687 5685
5728 5727 5724 5722 5719 5716 5713 5710 5707 5704 5702 5700 5698 5695 5694 5692 5691 5690 5689 5688 5687 5687 5686 5686 5686 5686 5685 5685 5685 5685 5685 5685 5685 5685 5685 5685 5685 5685 5685 5685 5684 5684 5683 5682
5728 5727 5724 5722 5719 5716 5713 5709 5706 5704 5701 5699 5697 5694 5692 5690 5689 5688 5686 5685 5685 5684 5683 5683 5682 5682 5682 5681 5681 5681 5681 5681 5680 5681 5681 5681 5681 5681 5681 5681 5681 5681 5680 5679
5729 5727 5725 5723 5719 5716 5713 5709 5706 5703 5701 5698 5696 5694 5691 5689 5687 5686 5685 5683 5682 5681 5680 5680 5679 5679 5678 5678 5677 5677 5677 5677 5676 5676 5677 5677 5677 5678 5678 5678 5678 5678 5677 5677
5730 5728 5725 5723 5720 5717 5713 5710 5707 5704 5701 5698 5696 5693 5691 5688 5686 5685 5683 5682 5680 5679 5678 5677 5676 5675 5675 5674 5674 5674 5673 5673 5673 5673 5673 5674 5674 5675 5675 5676 5676 5676 5675 5674
5730 5728 5726 5723 5721 5718 5714 5711 5708 5704 5701 5699 5696 5693 5691 5688 5686 5684 5682 5680 5678 5677 5676 5674 5673 5673 5672 5671 5671 5671 5670 5670 5670 5670 5670 5671 5672 5672 5673 5673 5674 5674 5673 5673
5731 5729 5727 5725 5722 5719 5716 5712 5709 5706 5703 5700 5697 5694 5691 5689 5686 5684 5682 5679 5677 5675 5674 5672 5671 5670 5670 5669 5669 5668 5668 5668 5667 5668 5668 5669 5669 5670 5671 5671 5672 5672 5671 5671
5731 5730 5728 5726 5723 5720 5717 5714 5711 5707 5704 5701 5698 5695 5692 5690 5687 5684 5682 5679 5677 5675 5673 5671 5670 5669 5668 5667 5667 5666 5666 5666 5666 5666 5667 5667 5668 5669 5669 5670 5670 5670 5670 5669
5732 5731 5729 5727 5724 5722 5719 5716 5712 5709 5706 5703 5700 5697 5694 5691 5688 5685 5682 5679 5677 5675 5673 5671 5669 5668 5666 5666 5665 5665 5665 5665 5665 5666 5666 5666 5667 5668 5668 5668 5669 5669 5668 5668
5733 5732 5730 5728 5726 5723 5721 5718 5715 5711 5708 5705 5702 5699 5696 5693 5690 5687 5684 5681 5678 5676 5674 5672 5669 5668 5666 5665 5665 5665 5665 5665 5665 5665 5665 5666 5666 5667 5667 5667 5667 5667 5667 5667
5733 5732 5731 5730 5728 5725 5722 5720 5717 5714 5711 5708 5705 5702 5699 5695 5692 5689 5686 5683 5681 5679 5676 5674 5672 5670 5668 5667 5666 5666 5666 5665 5665 5665 5666 5666 5666 5666 5667 5667 5667 5666 5666 5666
5733 5733 5732 5731 5729 5727 5725 5722 5719 5716 5713 5711 5708 5705 5702 5699 5695 5692 5689 5687 5684 5682 5679 5677 5675 5673 5671 5670 5669 5668 5668 5667 5667 5667 5667 5667 5667 5667 5666 5666 5666 5666 5666 5665
5733 5733 5733 5732 5730 5729 5727 5724 5721 5719 5716 5713 5711 5708 5705 5702 5699 5696 5693 5690 5688 5685 5683 5680 5678 5676 5675 5673 5672 5671 5670 5670 5669 5669 5668 5668 5668 5667 5667 5666 5666 5666 5666 5665
5733 5734 5733 5733 5732 5730 5728 5726 5724 5721 5719 5716 5714 5711 5708 5705 5703 5700 5697 5694 5692 5689 5686 5684 5682 5680 5678 5677 5676 5674 5673 5673 5672 5671 5670 5670 5669 5668 5668 5667 5667 5667 5666 5666
5733 5734 5734 5733 5733 5731 5730 5728 5726 5724 5721 5719 5717 5714 5711 5709 5706 5704 5701 5698 5696 5693 5691 5688 5686 5684 5682 5681 5679 5678 5677 5676 5675 5674 5673 5672 5672 5671 5670 5669 5669 5668 5668 5668
5733 5733 5734 5734 5733 5732 5731 5730 5728 5726 5724 5721 5719 5717 5715 5712 5710 5707 5705 5702 5700 5698 5695 5693 5690 5688 5687 5685 5684 5682 5681 5679 5678 5677 5676 5675 5674 5673 5673 5672 5671 5671 5670 5670
5732 5733 5733 5734 5734 5733 5732 5731 5729 5728 5726 5724 5722 5720 5718 5715 5713 5711 5709 5706 5704 5702 5699 5697 5695 5693 5691 5689 5688 5686 5685 5684 5682 5681 5680 5679 5678 5677 5676 5675 5675 5674 5673 5673
5730 5732 5733 5733 5734 5733 5733 5732 5730 5729 5727 5726 5724 5722 5720 5718 5716 5714 5712 5710 5708 5706 5703 5701 5699 5697 5696 5694 5692 5691 5690 5688 5687 5686 5684 5683 5682 5681 5680 5679 5678 5677 5676 5676
5729 5730 5732 5733 5733 5733 5733 5732 5731 5730 5728 5727 5725 5724 5722 5720 5718 5717 5715 5713 5711 5709 5707 5705 5703 5702 5700 5698 5697 5695 5694 5692 5691 5690 5688 5687 5686 5685 5684 5683 5681 5680 5680 5679